Weather reports worldwide

Advertisment
Nordkoster, Sweden (2500): temperature & dewpoint: 04.07.2020 11:00:00 - 10.07.2020 11:00:00 (CEST)Nordkoster, Sweden (2500): wind speed & gusts: 04.07.2020 11:00:00 - 10.07.2020 11:00:00 (CEST)Nordkoster, Sweden (2500): wind direction: 04.07.2020 11:00:00 - 10.07.2020 11:00:00 (CEST)Nordkoster, Sweden (2500): reduced air pressure: 04.07.2020 11:00:00 - 10.07.2020 11:00:00 (CEST)Nordkoster, Sweden (2500): visibility: 04.07.2020 11:00:00 - 10.07.2020 11:00:00 (CEST)Nordkoster, Sweden (2500): precipitation: 04.07.2020 11:00:00 - 10.07.2020 11:00:00 (CEST)
Date & Time tt [°C] td [°C] ff [km/h] ff [kn] fx [km/h] fx [kn] dd ppp [hPa] vv [km] rr [mm]
10.07.2020 11:00:00 - - - - - - - - - -
10.07.2020 10:00:00 15,9 10,2 9 5 16 9 SSW 1008,3 42 0,0
10.07.2020 09:00:00 15,3 10,3 8 5 12 6 S 1008,5 41 0,0
10.07.2020 08:00:00 14,9 10,9 7 4 10 5 SSE 1008,2 41 0,0
10.07.2020 07:00:00 14,2 11,5 6 4 10 5 SE 1008,4 50 0,0
10.07.2020 06:00:00 12,9 11,6 7 4 10 5 ESE 1008,5 41 0,0
10.07.2020 05:00:00 - - - - 14 7 - - - -
10.07.2020 04:00:00 - - - - 10 5 - - - -
10.07.2020 03:00:00 - - - - - - - - - -
10.07.2020 02:00:00 - - - - - - - - - -
10.07.2020 01:00:00 14,1 10,7 10 6 15 8 S 1009,4 50 0,0
10.07.2020 00:00:00 13,6 10,6 7 4 16 8 SSE 1009,4 50 0,0
09.07.2020 23:00:00 14,3 10,9 11 6 19 11 S 1009,4 50 0,0
09.07.2020 22:00:00 14,6 10,2 15 8 23 12 S 1009,5 50 0,0
09.07.2020 21:00:00 15,1 10,3 17 9 27 15 S 1009,6 43 0,0
09.07.2020 20:00:00 15,7 11,1 21 12 30 16 S 1009,4 42 0,0
09.07.2020 19:00:00 16,7 11,0 14 8 22 12 S 1009,8 42 0,0
09.07.2020 18:00:00 16,7 8,9 16 9 26 14 S 1009,9 41 0,0
09.07.2020 17:00:00 17,0 9,9 18 10 25 13 S 1010,1 48 0,0
09.07.2020 16:00:00 17,5 10,6 16 9 23 12 SSW 1010,1 33 0,0
09.07.2020 15:00:00 17,4 11,0 16 8 26 14 SSW 1010,2 39 0,0
09.07.2020 14:00:00 17,5 8,9 19 10 26 14 S 1010,4 39 0,0
09.07.2020 13:00:00 19,1 7,2 6 4 14 8 SW 1010,2 40 0,0
09.07.2020 12:00:00 16,8 9,0 10 6 18 10 NNE 1010,0 43 0,0
09.07.2020 11:00:00 14,7 10,3 14 8 20 11 NNE 1010,2 37 0,0
09.07.2020 10:00:00 15,1 9,5 11 6 19 10 ENE 1010,3 46 0,0
09.07.2020 09:00:00 14,5 9,1 16 9 21 11 ENE 1010,3 46 0,0
09.07.2020 08:00:00 13,5 9,7 11 6 16 9 NNE 1010,2 50 0,0
09.07.2020 07:00:00 12,8 11,5 7 4 16 9 NE 1009,8 27 0,0
09.07.2020 06:00:00 12,2 11,4 13 7 19 10 ENE 1009,5 18 0,0
09.07.2020 05:00:00 11,9 11,4 9 5 18 10 NE 1009,4 14 0,0
09.07.2020 04:00:00 12,0 11,5 7 4 10 5 ESE 1009,2 13 0,0
09.07.2020 03:00:00 12,2 11,7 6 3 8 5 SE 1009,0 16 0,0
09.07.2020 02:00:00 12,7 11,9 6 3 8 4 E 1008,9 18 0,0
09.07.2020 01:00:00 14,3 12,3 6 3 10 5 W 1008,8 22 0,0
09.07.2020 00:00:00 14,5 12,0 8 4 13 7 WSW 1008,8 24 0,0
08.07.2020 23:00:00 14,7 11,7 9 5 15 8 WSW 1008,7 29 0,0
08.07.2020 22:00:00 14,9 10,7 11 6 21 11 WSW 1008,4 31 0,0
08.07.2020 21:00:00 16,1 7,6 11 6 22 12 WSW 1008,0 47 0,0
08.07.2020 20:00:00 14,9 7,9 15 8 33 18 W 1008,1 45 0,0
08.07.2020 19:00:00 15,7 8,2 23 12 34 18 W 1008,0 48 0,0
08.07.2020 18:00:00 14,9 7,7 24 13 37 20 W 1008,3 44 0,0
08.07.2020 17:00:00 16,6 7,5 22 12 38 21 WSW 1008,1 32 0,0
08.07.2020 16:00:00 15,0 6,3 27 14 41 22 W 1008,0 43 0,0
08.07.2020 15:00:00 15,8 6,5 23 13 35 19 WSW 1007,9 42 0,0
08.07.2020 14:00:00 16,2 6,3 17 9 27 15 W 1007,6 37 0,0
08.07.2020 13:00:00 16,6 4,0 16 9 25 14 NW 1007,3 44 0,0
08.07.2020 12:00:00 15,8 5,4 17 9 26 14 NW 1007,1 43 0,0
08.07.2020 11:00:00 14,6 4,9 14 8 29 16 N 1006,7 44 0,0
08.07.2020 10:00:00 13,8 5,9 17 9 31 17 N 1006,4 46 0,0
08.07.2020 09:00:00 12,8 5,5 19 10 33 18 N 1005,9 47 0,0
08.07.2020 08:00:00 12,4 5,8 18 10 40 21 N 1005,4 49 0,0
08.07.2020 07:00:00 11,6 7,3 19 10 29 16 N 1005,1 50 0,0
08.07.2020 06:00:00 10,9 6,4 15 8 36 20 N 1004,9 50 0,0
08.07.2020 05:00:00 9,9 7,1 20 11 37 20 N 1004,7 50 0,0
08.07.2020 04:00:00 10,1 6,3 24 13 42 23 N 1004,2 50 0,0
08.07.2020 03:00:00 10,0 7,4 20 11 37 20 NNW 1004,3 50 0,0
08.07.2020 02:00:00 10,3 7,7 21 11 36 19 N 1004,1 50 0,1
08.07.2020 01:00:00 10,0 7,6 18 10 41 22 NNW 1003,8 18 0,5
08.07.2020 00:00:00 10,1 7,9 18 10 48 26 N 1003,7 41 0,1
07.07.2020 23:00:00 11,3 6,2 27 14 41 22 NNW 1003,6 43 0,0
07.07.2020 22:00:00 12,3 5,7 21 11 49 26 WNW 1003,4 50 0,0
07.07.2020 21:00:00 12,7 5,6 29 16 44 24 NW 1003,4 43 0,0
07.07.2020 20:00:00 13,1 2,6 20 11 36 20 W 1003,1 50 0,3
07.07.2020 19:00:00 11,9 2,1 30 16 57 31 WNW 1003,8 18 0,2
07.07.2020 18:00:00 16,1 3,8 22 12 40 21 WNW 1003,5 48 0,0
07.07.2020 17:00:00 15,9 5,8 23 13 46 25 WSW 1003,6 28 0,0
07.07.2020 16:00:00 15,5 6,8 31 17 52 28 WSW 1003,8 25 0,0
07.07.2020 15:00:00 15,4 6,9 32 18 48 26 WSW 1004,0 28 0,0
07.07.2020 14:00:00 15,2 7,2 29 15 47 26 WSW 1003,9 35 0,0
07.07.2020 13:00:00 15,5 5,4 27 15 40 22 WSW 1004,2 40 0,0
07.07.2020 12:00:00 15,1 6,4 25 14 40 21 WSW 1004,4 35 0,0
07.07.2020 11:00:00 14,0 5,4 24 13 40 22 WSW 1004,4 39 0,0
07.07.2020 10:00:00 13,8 5,9 24 13 46 25 WSW 1004,3 37 0,0
07.07.2020 09:00:00 - - - - 44 24 - - - -
07.07.2020 08:00:00 - - - - 45 24 - - - -
07.07.2020 07:00:00 13,2 5,4 29 15 51 27 W 1004,2 39 0,0
07.07.2020 06:00:00 13,4 4,8 34 18 48 26 W 1004,1 40 0,0
07.07.2020 05:00:00 12,7 4,6 27 14 45 24 W 1004,1 46 0,0
07.07.2020 04:00:00 12,9 4,8 32 17 50 27 W 1003,7 47 0,0
07.07.2020 03:00:00 13,5 5,1 35 19 48 26 WNW 1003,1 50 0,0
07.07.2020 02:00:00 14,3 5,9 32 17 47 25 WNW 1002,4 50 0,0
07.07.2020 01:00:00 15,4 5,0 32 17 47 26 NW 1001,8 50 0,0
07.07.2020 00:00:00 15,6 4,6 31 17 47 25 NW 1000,9 43 0,0
06.07.2020 23:00:00 14,1 9,7 3 2 7 4 NNE 1000,3 21 0,0
06.07.2020 22:00:00 - - - - 48 26 - - - -
06.07.2020 21:00:00 - - - - 31 17 - - - -
06.07.2020 20:00:00 16,2 9,1 20 11 33 18 WNW 996,5 42 0,0
06.07.2020 19:00:00 15,9 8,1 29 16 57 31 NNW 995,4 50 0,0
06.07.2020 18:00:00 15,6 11,6 17 9 33 18 NNW 994,1 30 0,4
06.07.2020 17:00:00 13,8 10,6 25 14 51 27 NW 992,7 11 0,1
06.07.2020 16:00:00 16,4 11,3 18 10 25 13 W 991,2 25 0,0
06.07.2020 15:00:00 15,8 10,3 16 9 27 15 W 990,1 26 0,0
06.07.2020 14:00:00 15,3 10,7 21 11 47 26 WSW 989,3 16 0,0
06.07.2020 13:00:00 14,6 10,8 33 18 60 33 WSW 989,1 16 0,0
06.07.2020 12:00:00 14,6 9,6 39 21 61 33 WSW 988,8 16 0,0
06.07.2020 11:00:00 14,8 10,2 37 20 66 36 WSW 988,8 19 0,0
06.07.2020 10:00:00 14,2 8,8 40 22 66 35 WSW 988,6 19 0,0
06.07.2020 09:00:00 13,9 9,3 44 24 67 36 WSW 988,6 20 0,0
06.07.2020 08:00:00 13,6 8,9 46 25 68 37 WSW 988,5 20 0,0
06.07.2020 07:00:00 13,5 8,6 44 24 69 37 WSW 988,3 18 0,0
06.07.2020 06:00:00 13,4 8,9 42 23 69 38 WSW 988,4 20 0,0
06.07.2020 05:00:00 13,2 8,5 43 23 63 34 WSW 988,8 18 0,0
06.07.2020 04:00:00 13,3 8,2 45 24 69 38 WSW 989,0 17 0,0
06.07.2020 03:00:00 13,4 8,2 48 26 72 39 WSW 989,4 15 0,0
06.07.2020 02:00:00 13,6 9,3 46 25 74 40 WSW 989,9 15 0,0
06.07.2020 01:00:00 13,6 9,1 50 27 76 41 WSW 989,9 14 0,0
06.07.2020 00:00:00 13,9 9,3 50 27 80 43 WSW 990,1 14 0,0
05.07.2020 23:00:00 - - - - 76 41 - - - -
05.07.2020 22:00:00 - - - - 75 41 - - - -
05.07.2020 21:00:00 15,2 11,6 50 27 80 43 SW 988,5 - 0,0
05.07.2020 20:00:00 15,2 12,3 49 26 75 41 SW 988,1 9 0,0
05.07.2020 19:00:00 15,2 11,8 57 31 84 45 SW 988,2 9 0,0
05.07.2020 18:00:00 15,2 11,4 51 28 79 43 SW 988,3 - 0,0
05.07.2020 17:00:00 15,8 12,4 47 25 78 42 SW 988,1 9 0,0
05.07.2020 16:00:00 15,9 12,3 49 27 77 42 SW 987,7 9 0,0
05.07.2020 15:00:00 16,7 14,3 44 24 70 38 SW 987,7 10 0,0
05.07.2020 14:00:00 16,5 15,5 44 24 70 38 SW 987,6 12 0,0
05.07.2020 13:00:00 16,0 15,4 44 24 76 41 SW 987,6 6 1,1
05.07.2020 12:00:00 15,9 15,4 53 28 74 40 S 987,6 3,0 2,9
05.07.2020 11:00:00 15,4 15,1 34 18 54 29 SSE 989,7 3,2 4,8
05.07.2020 10:00:00 13,6 13,3 26 14 36 19 SE 992,1 6 2,4
05.07.2020 09:00:00 13,6 13,1 22 12 34 18 SE 993,9 7 1,0
05.07.2020 08:00:00 13,6 12,8 23 12 34 18 SSE 995,7 8 1,0
05.07.2020 07:00:00 13,8 12,9 28 15 37 20 S 997,0 6 1,5
05.07.2020 06:00:00 14,3 12,1 23 12 36 19 SSW 998,1 11 0,2
05.07.2020 05:00:00 14,7 12,7 27 15 35 19 S 998,7 22 0,0
05.07.2020 04:00:00 14,6 12,1 19 10 29 16 S 999,6 40 0,0
05.07.2020 03:00:00 14,7 11,5 18 10 29 15 SSW 1000,2 34 0,0
05.07.2020 02:00:00 14,1 12,1 20 11 27 14 SW 1001,2 8 0,2
05.07.2020 01:00:00 14,8 11,6 6 4 15 8 SW 1001,3 50 0,0
05.07.2020 00:00:00 14,7 10,3 10 6 18 10 WSW 1001,7 50 0,0
04.07.2020 23:00:00 14,6 9,4 13 7 18 10 SW 1002,0 50 0,0
04.07.2020 22:00:00 14,7 9,3 10 5 16 8 SSW 1001,8 50 0,0
04.07.2020 21:00:00 15,2 9,1 6 3 9 5 WSW 1002,1 50 0,0
04.07.2020 20:00:00 15,6 9,3 5 3 10 5 WSW 1002,2 50 0,0
04.07.2020 19:00:00 16,1 9,1 3 2 9 5 WNW 1002,1 50 0,0
04.07.2020 18:00:00 16,6 9,8 7 4 18 10 NW 1002,3 50 0,0
04.07.2020 17:00:00 16,4 9,8 13 7 19 10 NW 1002,6 48 0,0
04.07.2020 16:00:00 17,1 10,0 11 6 21 12 NW 1002,6 37 0,0
04.07.2020 15:00:00 16,2 9,6 12 6 22 12 NNE 1002,4 42 0,0
04.07.2020 14:00:00 15,5 9,8 12 7 23 12 N 1002,5 45 0,0
04.07.2020 13:00:00 14,8 10,2 14 8 23 12 NNE 1002,5 45 0,0
04.07.2020 12:00:00 13,9 10,5 15 8 27 15 NNE 1002,4 48 0,0
04.07.2020 11:00:00 12,6 10,8 17 9 27 14 NNE 1002,1 50 0,0

tt = temperature
td = dewpoint
ff = wind speed
fx = gusts
dd = wind direction
ppp = reduced air pressure
vv = visibility
rr = precipitation

Next stations